Regional Weather Roundup
Issued by NWS

Home | Current Version | Previous Version | Text Only | Print | Product List | Glossary Off
Versions: 1 2 3 4 5 6 7 8 9 10 11 12 13 14 15 16 17 18 19 20 21 22 23 24 25 26 27 28 29 30 31 32 33 34 35 36 37 38 39 40 41 42 43 44 45 46 47 48 49 50

000
ASUS43 KOAX 090402
RWRNE

WEATHER ROUNDUP FOR NEBRASKA
NATIONAL WEATHER SERVICE OMAHA NE
1000 PM CST THU DEC 08 2016

NOTES: SATELLITE DATA IS BEING USED TO AUGMENT CLOUD COVER ABOVE
       12000 FEET.
       "FAIR" INDICATES FEW OR NO CLOUDS BELOW 12,000 FEET WITH NO
       SIGNIFICANT WEATHER AND/OR OBSTRUCTIONS TO VISIBILITY.

  * THESE STATIONS DO NOT REPORT WEATHER SUCH AS RAIN...SNOW OR FOG.

NEZ001>004-019>022-054>056-090500-
NEBRASKA PANHANDLE

CITY           SKY/WX    TMP DP  RH WIND       PRES   REMARKS
SCOTTSBLUFF    CLOUDY     6  -1  73 E9        30.31F WCI  -8
ALLIANCE       CLOUDY     2  -4  76 SE9       30.33F WCI -13
CHADRON        CLOUDY    -1  -8  72 N5        30.39F WCI -11
KIMBALL        CLOUDY     5   1  83 S8        30.25F WCI  -9
SIDNEY         CLOUDY     7   1  76 S9        30.32F WCI  -7
$$

NEZ057>060-069>072-079>082-090500-
SOUTHWEST NEBRASKA

CITY           SKY/WX    TMP DP  RH WIND       PRES   REMARKS
NORTH PLATTE   CLOUDY     2  -4  76 E3        30.51F
IMPERIAL       CLOUDY     1  -4  79 SE6       30.46F WCI -10
LEXINGTON      CLEAR      7   1  76 CALM      30.55F
MCCOOK         CLOUDY     3  -2  79 W6        30.54F WCI  -8
OGALLALA       CLOUDY     8   2  75 CALM      30.45F
$$

NEZ005>010-023>029-035>040-094-090500-
NORTH CENTRAL NEBRASKA

CITY           SKY/WX    TMP DP  RH WIND       PRES   REMARKS
VALENTINE      CLOUDY    -4 -10  75 SW7       30.51F WCI -18
AINSWORTH      CLOUDY    -1  -5  83 CALM      30.51F
BROKEN BOW     CLOUDY    -1  -6  79 CALM      30.53S
O`NEILL        CLEAR      3  -1  81 N3        30.58S
ORD            CLEAR      1  -5  75 CALM      30.57F
THEDFORD       CLOUDY     1  -5  73 CALM      30.50F
$$

NEZ041-046>049-061>064-073>077-083>087-090500-
SOUTH CENTRAL NEBRASKA

CITY           SKY/WX    TMP DP  RH WIND       PRES   REMARKS
GRAND ISLAND   CLEAR      8   2  76 CALM      30.60S
AURORA         CLEAR      7   0  74 CALM      30.60S
HASTINGS       CLEAR      7   0  73 SW3       30.60S
HEBRON         CLEAR      9   5  84 CALM      30.63F
HOLDREGE       CLEAR     10   1  68 W5        30.57S WCI   1
KEARNEY *      CLEAR     10   0  61 CALM      30.59R
YORK           CLEAR      7   1  78 NW3       30.61S
$$

NEZ011>018-030>034-042>045-090500-
NORTHEAST NEBRASKA

CITY           SKY/WX    TMP DP  RH WIND       PRES   REMARKS
NORFOLK        CLEAR      7   0  73 NW6       30.61F WCI  -3
ALBION         CLEAR      5  -1  76 CALM      30.60S
BLAIR          CLEAR     14   7  73 NW9       30.62S WCI   2
FREMONT        CLEAR      9   4  79 NW5       30.63F WCI   1
TEKAMAH        CLEAR     13   5  70 NW10      30.65S WCI   0
WAYNE          CLEAR      7   2  81 CALM      30.62S
$$

NEZ050>053-065>068-078-088>093-090500-
SOUTHEAST NEBRASKA

CITY           SKY/WX    TMP DP  RH WIND       PRES   REMARKS
LINCOLN        CLEAR      8   3  80 N5        30.65F WCI   0
OMAHA EPPLEY   CLEAR     14   5  67 N6        30.65S WCI   5
BEATRICE       CLEAR     11   5  77 CALM      30.64S
FALLS CITY     CLEAR     13   8  81 W7        30.65S WCI   3
NEBRASKA CITY  CLEAR     15   5  63 NW5       30.63S WCI   8
PLATTSMOUTH    CLEAR     14   5  67 NW7       30.63S WCI   4
$$

NEZ044-045-051>053-067-090500-
OMAHA AREA

CITY           SKY/WX    TMP DP  RH WIND       PRES   REMARKS
OMAHA EPPLEY   CLEAR     14   5  67 N6        30.65S WCI   5
BLAIR          CLEAR     14   7  73 NW9       30.62S WCI   2
FREMONT        CLEAR      9   4  79 NW5       30.63F WCI   1
MILLARD        CLEAR     19   8  62 NW3       30.65S
OFFUTT AFB     CLEAR     15   7  72 NW8       30.64S WCI   3
PLATTSMOUTH    CLEAR     14   5  67 NW7       30.63S WCI   4
WAHOO          FAIR      10   4  77 NW6       30.63F WCI   0
$$



USA.gov is the U.S. government's official web portal to all federal, state and local government web resources and services.